Gustavo Rojas Pinilla International Airport
SKSP : now visible

Airfield :











YOU CAN JOIN US ON...

 
LOGIN :

Register | Disclaimer

   EN    FR    IT 

 









Legend :    VFR   Marginal VFR   IFR   Intensive IFR   Very Intensive IFR
Visi :
Ceiling :
>= 8 km
>= 3000ft
5 to 8 km
1000 to 3000 ft
1500m to 5 km
500 to 1000 ft
800 to 1500m
200 to 500 ft
< 800m
< 200 ft
Symbols :   Thunderstorms  Fog  Heavy snow  Heavy precipitations  Wind > 20 kt






- Airport Elevation : 19 ft
- IATA code : ADZ


SKSP - Gustavo Rojas Pinilla International

CURRENT METAR :
  • 151200Z 09003KT 050V110 9999 SCT016 26/24 A2989

EXPIRED METARs :
  • 151100Z 08004KT 040V120 9999 FEW016 27/24 A2987
  • 151000Z 07004KT 020V110 9999 SCT016 26/24 A2987

TAF TAF SKSP
Valid from the 15 at 12:00 until the 16 at 12:00 UTC


151030Z 1512/1612 05005KT 9999 FEW018 TX30/1519Z TN27/1611Z



MET'MAP, your aeronautical weather chart ! - Copyright ORBIFLY December 2007 - Disclaimer

ORBIFLY MET'MAP TEAM :

Programming & Development : Alexandra Zaïnal
Concept & original design : Baudouin d'Aumeries
Assistance for programming : Marc-Olivier Méhu
Technical & hardware support : Manuel Goepfert

Contact : metmap@orbifly.com




SOURCES & CREDITS :

   NOAA       Earth
Advisory